| time (UTC) | temp C | wind direction | speed KPH | gust KPH | rain 1hr cm | rain 24hr cm | rain mn cm | humidity % | barometer mb |
| 20260506002030 | 12 | 0.0 | 0.0 | 0.00 | 0.30 | 0.00 | 83 | 1011.4 | |
| 20260506001055 | 12 | 0.0 | 0.0 | 0.00 | 0.30 | 0.00 | 82 | 1011.3 | |
| 20260506000118 | 12 | 0.0 | 0.0 | 0.00 | 0.30 | 0.00 | 85 | 1011.3 | |
| 20260505235038 | 12 | 0.0 | 0.0 | 0.00 | 0.30 | 0.00 | 87 | 1011.6 | |
| 20260505234102 | 12 | 0.0 | 0.0 | 0.00 | 0.30 | 0.00 | 88 | 1011.6 | |
| 20260505233022 | 12 | 0.0 | 0.0 | 0.00 | 0.30 | 0.00 | 89 | 1011.6 | |
| 20260505232043 | 12 | 0.0 | 0.0 | 0.00 | 0.30 | 0.00 | 89 | 1011.7 | |
| 20260505231024 | 12 | 0.0 | 0.0 | 0.00 | 0.30 | 0.00 | 88 | 1011.9 | |
| 20260505230041 | 12 | 0.0 | 0.0 | 0.00 | 0.30 | 0.00 | 88 | 1011.7 | |
| 20260505225110 | 12 | 0.0 | 0.0 | 0.00 | 0.30 | 0.00 | 88 | 1011.8 | |
| 20260505224035 | 12 | 0.0 | 0.0 | 0.00 | 0.30 | 0.00 | 88 | 1011.7 | |
| 20260505223110 | 12 | 0.0 | 0.0 | 0.00 | 0.30 | 0.00 | 88 | 1011.6 | |
| 20260505222031 | 12 | 0.0 | 0.0 | 0.00 | 0.30 | 0.00 | 87 | 1011.5 | |
| 20260505221054 | 12 | 0.0 | 0.0 | 0.00 | 0.30 | 0.00 | 86 | 1011.5 | |
| 20260505220119 | 12 | 0.0 | 0.0 | 0.00 | 0.30 | 0.00 | 86 | 1011.5 | |
| 20260505215034 | 12 | 0.0 | 0.0 | 0.00 | 0.30 | 0.30 | 86 | 1011.6 | |
| 20260505214103 | 12 | 0.0 | 0.0 | 0.00 | 0.30 | 0.30 | 86 | 1011.6 | |
| 20260505213022 | 12 | 0.0 | 0.0 | 0.00 | 0.30 | 0.30 | 86 | 1011.6 | |
| 20260505212044 | 12 | 0.0 | 0.0 | 0.00 | 0.30 | 0.30 | 86 | 1011.6 | |
| 20260505211111 | 12 | 0.0 | 0.0 | 0.00 | 0.30 | 0.30 | 87 | 1011.4 | |
| 20260505210030 | 12 | 0.0 | 0.0 | 0.00 | 0.30 | 0.30 | 87 | 1011.4 | |
| 20260505205054 | 12 | 0.0 | 0.0 | 0.00 | 0.30 | 0.30 | 87 | 1011.3 | |
| 20260505204118 | 12 | 0.0 | 0.0 | 0.00 | 0.30 | 0.30 | 88 | 1011.1 | |
| 20260505203039 | 12 | 0.0 | 0.0 | 0.00 | 0.30 | 0.30 | 88 | 1010.9 | |
| 20260505202103 | 12 | 0.0 | 0.0 | 0.00 | 0.30 | 0.30 | 89 | 1010.7 | |
| 20260505201033 | 12 | 0.0 | 0.0 | 0.00 | 0.30 | 0.30 | 90 | 1010.8 | |
| 20260505200103 | 12 | 0.0 | 0.0 | 0.00 | 0.30 | 0.30 | 90 | 1010.5 | |
| 20260505195034 | 12 | 0.0 | 0.0 | 0.00 | 0.30 | 0.30 | 90 | 1010.0 | |
| 20260505194102 | 12 | 0.0 | 0.0 | 0.00 | 0.30 | 0.30 | 89 | 1009.5 | |
| 20260505193022 | 12 | 0.0 | 0.0 | 0.00 | 0.30 | 0.30 | 89 | 1009.5 | |
| 20260505192043 | 12 | 0.0 | 0.0 | 0.00 | 0.30 | 0.30 | 88 | 1009.5 | |
| 20260505191111 | 12 | 0.0 | 0.0 | 0.00 | 0.30 | 0.30 | 88 | 1009.6 | |
| 20260505190036 | 12 | 0.0 | 0.0 | 0.00 | 0.30 | 0.30 | 88 | 1009.5 | |
| 20260505185111 | 12 | 0.0 | 0.0 | 0.00 | 0.30 | 0.30 | 88 | 1009.6 | |
| 20260505184036 | 12 | 0.0 | 0.0 | 0.00 | 0.30 | 0.30 | 88 | 1009.4 | |
| 20260505183111 | 13 | 0.0 | 0.0 | 0.00 | 0.30 | 0.30 | 89 | 1009.3 | |
| 20260505182031 | 13 | 0.0 | 0.0 | 0.00 | 0.30 | 0.30 | 90 | 1009.1 | |
| 20260505181055 | 14 | 0.0 | 0.0 | 0.00 | 0.30 | 0.30 | 90 | 1008.8 | |
| 20260505180031 | 15 | 0.0 | 0.0 | 0.00 | 0.30 | 0.30 | 90 | 1008.9 | |
| 20260505175054 | 15 | 0.0 | 0.0 | 0.00 | 0.30 | 0.30 | 90 | 1008.9 | |
| 20260505174119 | 14 | 0.0 | 0.0 | 0.08 | 0.30 | 0.30 | 90 | 1008.8 | |
| 20260505173034 | 14 | 0.0 | 0.0 | 0.20 | 0.30 | 0.30 | 89 | 1009.0 | |
| 20260505172102 | 14 | 0.0 | 0.0 | 0.25 | 0.30 | 0.30 | 89 | 1008.9 | |
| 20260505171033 | 14 | 0.0 | 0.0 | 0.30 | 0.30 | 0.30 | 89 | 1009.0 | |
| 20260505170104 | 14 | 0.0 | 0.0 | 0.30 | 0.30 | 0.30 | 88 | 1009.1 | |
| 20260505165034 | 14 | 0.0 | 0.0 | 0.30 | 0.30 | 0.30 | 86 | 1009.4 | |
| 20260505164104 | 15 | 0.0 | 0.0 | 0.23 | 0.23 | 0.23 | 85 | 1009.3 | |
| 20260505163022 | 15 | 0.0 | 0.0 | 0.10 | 0.10 | 0.10 | 81 | 1009.7 | |
| 20260505162041 | 16 | 34 | 0.0 | 1.6 | 0.05 | 0.05 | 0.05 | 75 | 1009.7 |
| 20260505161110 | 17 | 0.0 | 0.0 | 0.00 | 0.00 | 0.00 | 68 | 1009.5 | |
| 20260505153055 | 21 | 0.0 | 0.0 | 0.00 | 0.00 | 0.00 | 52 | 1008.2 | |
| 20260505152032 | 22 | 0.0 | 0.0 | 0.00 | 0.00 | 0.00 | 48 | 1007.9 | |
| 20260505151055 | 22 | 0.0 | 0.0 | 0.00 | 0.00 | 0.00 | 46 | 1007.8 | |
| 20260505150119 | 22 | 0.0 | 0.0 | 0.00 | 0.00 | 0.00 | 44 | 1007.7 | |
| 20260505140104 | 24 | 0.0 | 0.0 | 0.00 | 0.00 | 0.00 | 37 | 1008.0 | |
| 20260505124036 | 24 | 38 | 0.0 | 1.6 | 0.00 | 0.00 | 0.00 | 39 | 1008.4 |
| 20260505123112 | 25 | 74 | 1.6 | 3.2 | 0.00 | 0.00 | 0.00 | 38 | 1008.4 |
| 20260505122031 | 25 | 26 | 0.0 | 1.6 | 0.00 | 0.00 | 0.00 | 39 | 1008.5 |
| 20260505121056 | 25 | 0.0 | 0.0 | 0.00 | 0.00 | 0.00 | 38 | 1008.7 | |
| 20260505120120 | 24 | 29 | 0.0 | 1.6 | 0.00 | 0.00 | 0.00 | 39 | 1008.8 |
| 20260505115038 | 24 | 0.0 | 0.0 | 0.00 | 0.00 | 0.00 | 39 | 1008.8 | |
| 20260505114119 | 26 | 28 | 0.0 | 1.6 | 0.00 | 0.00 | 0.00 | 37 | 1008.9 |
| 20260505113038 | 26 | 37 | 0.0 | 1.6 | 0.00 | 0.00 | 0.00 | 36 | 1009.0 |
| 20260505112119 | 25 | 0.0 | 0.0 | 0.00 | 0.00 | 0.00 | 37 | 1009.1 | |
| 20260505111040 | 24 | 46 | 0.0 | 3.2 | 0.00 | 0.00 | 0.00 | 40 | 1009.5 |
| 20260505102112 | 25 | 0.0 | 0.0 | 0.00 | 0.00 | 0.00 | 43 | 1010.1 | |
| 20260505101033 | 26 | 50 | 0.0 | 1.6 | 0.00 | 0.00 | 0.00 | 41 | 1010.3 |
| 20260505095033 | 24 | 51 | 0.0 | 1.6 | 0.00 | 0.00 | 0.00 | 42 | 1010.4 |
| 20260505094103 | 23 | 0.0 | 0.0 | 0.00 | 0.00 | 0.00 | 47 | 1010.5 | |
| 20260505093025 | 23 | 0.0 | 0.0 | 0.00 | 0.00 | 0.00 | 46 | 1010.5 | |
| 20260505092041 | 24 | 53 | 0.0 | 1.6 | 0.00 | 0.00 | 0.00 | 45 | 1010.7 |
| 20260505091112 | 24 | 0.0 | 0.0 | 0.00 | 0.00 | 0.00 | 48 | 1010.8 | |
| 20260505090039 | 25 | 0.0 | 0.0 | 0.00 | 0.00 | 0.00 | 49 | 1011.0 | |
| 20260505085113 | 24 | 62 | 0.0 | 1.6 | 0.00 | 0.00 | 0.00 | 51 | 1011.1 |
| 20260505084032 | 23 | 0.0 | 0.0 | 0.00 | 0.00 | 0.00 | 51 | 1011.0 | |
| 20260505083056 | 23 | 0.0 | 0.0 | 0.00 | 0.00 | 0.00 | 51 | 1011.2 | |
| 20260505082120 | 22 | 0.0 | 0.0 | 0.00 | 0.00 | 0.00 | 53 | 1011.2 | |
| 20260505081039 | 21 | 0.0 | 0.0 | 0.00 | 0.00 | 0.00 | 55 | 1011.2 | |
| 20260505080104 | 21 | 48 | 0.0 | 1.6 | 0.00 | 0.00 | 0.00 | 56 | 1011.2 |
| 20260505075038 | 20 | 38 | 0.0 | 1.6 | 0.00 | 0.00 | 0.00 | 57 | 1011.3 |
| 20260505074119 | 21 | 0.0 | 0.0 | 0.00 | 0.00 | 0.00 | 58 | 1011.3 | |
| 20260505073040 | 20 | 0.0 | 0.0 | 0.00 | 0.00 | 0.00 | 58 | 1011.3 | |
| 20260505072016 | 20 | 0.0 | 0.0 | 0.00 | 0.00 | 0.00 | 59 | 1011.4 | |
| 20260505071038 | 19 | 0.0 | 0.0 | 0.00 | 0.00 | 0.00 | 61 | 1011.5 | |
| 20260505070120 | 18 | 0.0 | 0.0 | 0.00 | 0.00 | 0.00 | 64 | 1011.6 | |
| 20260505065039 | 17 | 0.0 | 0.0 | 0.00 | 0.00 | 0.00 | 64 | 1011.8 | |
| 20260505064120 | 17 | 0.0 | 0.0 | 0.00 | 0.00 | 0.00 | 66 | 1011.7 | |
| 20260505063040 | 17 | 0.0 | 0.0 | 0.00 | 0.00 | 0.00 | 66 | 1011.8 | |
| 20260505062104 | 17 | 0.0 | 0.0 | 0.00 | 0.00 | 0.00 | 67 | 1011.9 | |
| 20260505061024 | 15 | 0.0 | 0.0 | 0.00 | 0.00 | 0.00 | 71 | 1012.0 | |
| 20260505060042 | 13 | 0.0 | 0.0 | 0.00 | 0.00 | 0.00 | 76 | 1012.1 | |
| 20260505055112 | 13 | 0.0 | 0.0 | 0.00 | 0.00 | 0.00 | 79 | 1012.0 | |
| 20260505054041 | 12 | 0.0 | 0.0 | 0.00 | 0.00 | 0.00 | 81 | 1012.0 | |
| 20260505053023 | 11 | 0.0 | 0.0 | 0.00 | 0.00 | 0.00 | 84 | 1012.0 | |
| 20260505052046 | 11 | 0.0 | 0.0 | 0.00 | 0.00 | 0.00 | 86 | 1012.0 | |
| 20260505051024 | 10 | 0.0 | 0.0 | 0.00 | 0.00 | 0.00 | 87 | 1011.9 | |
| 20260505041056 | 10 | 0.0 | 0.0 | 0.00 | 0.00 | 0.00 | 87 | 1011.9 | |
| 20260505040120 | 10 | 0.0 | 0.0 | 0.00 | 0.00 | 0.00 | 87 | 1012.2 | |
| 20260505035040 | 10 | 0.0 | 0.0 | 0.00 | 0.00 | 0.00 | 86 | 1012.1 | |
| 20260505034104 | 10 | 0.0 | 0.0 | 0.00 | 0.00 | 0.00 | 86 | 1012.0 | |
| 20260505033034 | 10 | 0.0 | 0.0 | 0.00 | 0.00 | 0.00 | 85 | 1012.2 | |
| 20260505032104 | 10 | 0.0 | 0.0 | 0.00 | 0.00 | 0.00 | 84 | 1012.2 | |
| 20260505031035 | 11 | 0.0 | 0.0 | 0.00 | 0.00 | 0.00 | 84 | 1012.4 | |
| 20260505030105 | 11 | 0.0 | 0.0 | 0.00 | 0.00 | 0.00 | 84 | 1012.4 | |
| 20260505025035 | 11 | 0.0 | 0.0 | 0.00 | 0.00 | 0.00 | 83 | 1012.5 | |
| 20260505024104 | 11 | 0.0 | 0.0 | 0.00 | 0.00 | 0.00 | 83 | 1012.5 | |
| 20260505023024 | 11 | 0.0 | 0.0 | 0.00 | 0.00 | 0.00 | 82 | 1012.5 | |
| 20260505022042 | 11 | 0.0 | 0.0 | 0.00 | 0.00 | 0.00 | 81 | 1012.4 | |
| 20260505021112 | 11 | 0.0 | 0.0 | 0.00 | 0.00 | 0.00 | 81 | 1012.6 | |
| 20260505020032 | 11 | 0.0 | 0.0 | 0.00 | 0.00 | 0.00 | 80 | 1012.6 | |
| 20260505015056 | 12 | 0.0 | 0.0 | 0.00 | 0.00 | 0.00 | 79 | 1012.5 | |
| 20260505014121 | 12 | 0.0 | 0.0 | 0.00 | 0.00 | 0.00 | 78 | 1012.5 | |
| 20260505013040 | 12 | 0.0 | 0.0 | 0.00 | 0.00 | 0.00 | 77 | 1012.6 | |
| 20260505012104 | 12 | 0.0 | 0.0 | 0.00 | 0.00 | 0.00 | 77 | 1012.7 | |
| 20260505011039 | 12 | 0.0 | 0.0 | 0.00 | 0.00 | 0.00 | 75 | 1012.7 | |
| 20260505010104 | 13 | 0.0 | 0.0 | 0.00 | 0.00 | 0.00 | 74 | 1012.9 | |
| 20260505005035 | 13 | 0.0 | 0.0 | 0.00 | 0.00 | 0.00 | 73 | 1012.9 | |
| 20260505004104 | 13 | 0.0 | 0.0 | 0.00 | 0.00 | 0.00 | 72 | 1013.0 | |
| 20260505003035 | 14 | 0.0 | 0.0 | 0.00 | 0.00 | 0.00 | 71 | 1013.1 |